Weather History for Ramona, CA

Change the Weather History Date:

Sunday, January 6, 2013

  Actual Average Record
Temperature  
Mean Temperature 43 °F 50 °F  
Max Temperature 55 °F 66 °F 84 °F (2006)
Min Temperature 30 °F 35 °F 28 °F (1976)
Degree Days  
Heating Degree Days 22 15  
Month to date heating degree days 121 90  
Since 1 July heating degree days 923 978  
Cooling Degree Days 0 0  
Month to date cooling degree days 0 0  
Year to date cooling degree days 0 0  
Moisture  
Dew Point 38 °F    
Average Humidity 76    
Maximum Humidity 92    
Minimum Humidity 59    
Precipitation  
Precipitation 0.18 in 0.13 in 2.01 in (1993)
Month to date precipitation 0.18 0.79  
Year to date precipitation 0.18 0.79  
Since 1 July precipitation 3.82 5.50  
Snow  
Snow 0.00 in - - ()
Month to date snowfall 0.0  
Year to date snowfall 0.0  
Since 1 July snowfall 0.0  
Snow Depth 0.00 in    
Sea Level Pressure  
Sea Level Pressure 30.10 in    
Wind  
Wind Speed 4 mph (NNW)    
Max Wind Speed 20 mph    
Max Gust Speed 28 mph    
Visibility 8 miles    
Events Rain    
T = Trace of Precipitation, MM = Missing Value Source: NWS Daily Summary

Daily Weather History Graph

Daily Weather History Graph

Search for Another Location

Airport:

Trip Planner

Search our weather history database for the weather conditions in past years. The results will help you decide how hot, cold, wet, or windy it might be!

Date:

Astronomy

Jan. 06, 2013 Rise Set
Actual Time 6:51 AM PST 4:56 PM PST
Civil Twilight 6:24 AM PST 5:23 PM PST
Nautical Twilight 5:53 AM PST 5:53 PM PST
Astronomical Twilight 5:23 AM PST 6:23 PM PST
Moon 1:17 AM PST (1/6) 12:21 PM PST (1/6)
Length of Visible Light 10h 59m
Length of Day
10h 04m
Waning Crescent, 32% of the Moon is Illuminated
Jan 6
Waning Crescent
Jan 11
New
Jan 18
First Quarter
Jan 26
Full
Feb 3
Last Quarter

Hourly Weather History & Observations

Time (PST) Temp. Windchill Dew Point Humidity Pressure Visibility Wind Dir Wind Speed Gust Speed Precip Events Conditions
12:53 AM 32.0 °F - 28.9 °F 88% 30.19 in 6.0 mi Calm Calm - N/A   Clear
1:53 AM 34.0 °F - 28.9 °F 82% 30.18 in 7.0 mi Calm Calm - N/A   Clear
2:53 AM 32.0 °F - 28.0 °F 85% 30.19 in 6.0 mi Calm Calm - N/A   Clear
3:53 AM 32.0 °F - 28.0 °F 85% 30.17 in 7.0 mi Calm Calm - N/A   Scattered Clouds
4:53 AM 33.1 °F - 30.0 °F 89% 30.18 in 8.0 mi Calm Calm - N/A   Overcast
5:53 AM 37.0 °F - 32.0 °F 82% 30.18 in 7.0 mi Calm Calm - N/A   Overcast
6:39 AM 39.2 °F - 30.2 °F 70% 30.18 in 9.0 mi Calm Calm - N/A   Overcast
6:53 AM 39.0 °F - 33.1 °F 79% 30.19 in 9.0 mi Calm Calm - N/A   Overcast
7:53 AM 39.9 °F - 33.1 °F 77% 30.19 in 7.0 mi Calm Calm - N/A   Overcast
8:53 AM 43.0 °F - 35.1 °F 74% 30.19 in 10.0 mi Calm Calm - 0.00 in   Overcast
9:53 AM 48.9 °F - 41.0 °F 74% 30.20 in 10.0 mi Calm Calm - N/A   Mostly Cloudy
10:53 AM 50.0 °F - 39.9 °F 68% 30.17 in 10.0 mi WNW 5.8 mph - N/A   Partly Cloudy
11:53 AM 52.0 °F - 37.9 °F 59% 30.13 in 10.0 mi WNW 11.5 mph - N/A   Mostly Cloudy
12:53 PM 52.0 °F - 39.0 °F 61% 30.11 in 10.0 mi NW 10.4 mph - N/A   Overcast
1:45 PM 53.6 °F - 39.2 °F 58% 30.09 in 10.0 mi West 12.7 mph 18.4 mph N/A   Mostly Cloudy
1:53 PM 54.0 °F - 39.0 °F 57% 30.09 in 10.0 mi West 17.3 mph 21.9 mph N/A   Overcast
2:07 PM 53.6 °F - 39.2 °F 58% 30.09 in 10.0 mi West 18.4 mph - N/A   Overcast
2:53 PM 53.1 °F - 39.0 °F 59% 30.09 in 10.0 mi WNW 11.5 mph - N/A   Mostly Cloudy
3:12 PM 51.8 °F - 37.4 °F 58% 30.09 in 10.0 mi NW 11.5 mph - N/A   Scattered Clouds
3:53 PM 48.9 °F - 37.9 °F 66% 30.09 in 10.0 mi WNW 8.1 mph - N/A   Partly Cloudy
4:53 PM 48.0 °F - 39.0 °F 71% 30.09 in 10.0 mi West 10.4 mph - N/A   Mostly Cloudy
5:53 PM 44.1 °F - 39.9 °F 85% 30.09 in 10.0 mi Calm Calm - 0.02 in   Overcast
6:53 PM 44.1 °F - 41.0 °F 89% 30.07 in 5.0 mi Calm Calm - 0.01 in Rain Light Rain
7:01 PM 44.6 °F - 42.8 °F 93% 30.06 in 8.0 mi Calm Calm - 0.01 in Rain Light Rain
7:53 PM 44.1 °F 41.5 °F 42.1 °F 93% 30.05 in 10.0 mi ENE 4.6 mph - 0.01 in   Overcast
8:53 PM 43.0 °F - 42.1 °F 97% 30.04 in 6.0 mi Calm Calm - 0.03 in Rain Light Rain
9:23 PM 42.8 °F 41.1 °F 42.8 °F 100% 30.03 in 4.0 mi ESE 3.5 mph - 0.02 in Rain Light Rain
9:53 PM 44.1 °F - 43.0 °F 96% 30.02 in 3.0 mi Calm Calm - 0.05 in Rain Rain
10:01 PM 44.6 °F 42.2 °F 42.8 °F 93% 30.02 in 3.0 mi ESE 4.6 mph - 0.02 in Rain Light Rain
10:17 PM 44.6 °F 43.1 °F 42.8 °F 93% 30.02 in 5.0 mi East 3.5 mph - 0.03 in Rain Light Rain
10:34 PM 44.6 °F 43.1 °F 42.8 °F 93% 30.01 in 5.0 mi NE 3.5 mph - 0.04 in Rain Light Rain
10:53 PM 44.1 °F 42.5 °F 43.0 °F 96% 30.01 in 10.0 mi NE 3.5 mph - 0.04 in Rain Light Rain
11:50 PM 42.8 °F 40.1 °F 41.0 °F 93% 30.00 in 10.0 mi NE 4.6 mph - 0.02 in Rain Light Rain
11:53 PM 43.0 °F 41.3 °F 41.0 °F 93% 29.99 in 10.0 mi NE 3.5 mph - 0.02 in Rain Light Rain